Погода в Красноселькупе

Погода в Красноселькупе : погода сейчас, прогноз погоды и архив. Всё, что Вы хотите узнать о погоде в Красноселькупе!

Поиск расширенной информации на нашем сайте:

Другие новости

Новости СМИ2

Главная страница сайта

Новости сайта

03.07.2017

Напоминаем, что на нашем специализированном сайте Метеоцентр.Азия вы можете получить высокодетализированные автоматические прогнозы погоды по пунктам России, СНГ и мира в авиационном формате (включающие направление и скорость ветра, видимость, явления погоды, количество и форму облачности, нижнюю и верхнюю границу облачности).

Рекомендуем: Ответы анимационные картинки грузовых машин.

Погода в Красноселькупе - сегодня

Время (UTC), дата Ветер
(°,м/с) 
Видим.   Явления Облачность Т
(°С)
Тd
(°С)
f(%) Тe
(°С)
Pmin
(гПа)
dP
(гПа)
Po
(мм)
O2
(г/м3)
Тmin Tmax R s Состояние
почвы
06 18.02.18 210 (ЮЗ) 10 км  снежные кристаллы  10/0 средняя 
[Ac As]
-15.8 -18 83 -20  1019.3  -0.7  762  327           
09 18.02.18 190 (Ю) 10 км  слаб. снег  10/0 средняя, верхняя 
[Ac trans|Ci fib]
-14.6 -17.2 81 -19  1018.9  -0.4  762  326           
12 18.02.18 180 (Ю) 10 км  слаб. снег  10/0 средняя 
[Ac As]
-15.2 -17.6 82 -19  1017.9  -1  761  326           
15 18.02.18 200 (Ю) 4000 м  слаб. снег  10/8 300 м средняя 
[Cu Sc|Ac As]
-15 -17.3 83 -20  1016.7  -1.2  760  326    -14.6  0.6     
21 18.02.18 230 (ЮЗ) 10 км  слаб. снег{ливн. осадки}  10/0 средняя 
[As trans]
-16.7 -18.9 83 -19  1014.7  -0.8  759  327           
00 19.02.18 220 (ЮЗ) 10 км  слаб. снег{ливн. осадки}  10/0 средняя 
[As trans]
-17.7 -20 82 -20  1014.6  -0.2  758  328           
03 19.02.18 200 (Ю) 10 км  слаб. снег  10/0 средняя 
[Ac As]
-19.9 -22.3 81 -23  1014.6  758  331  -19.9    87  неравномерный
сухой снег
100% 
06 19.02.18 240 (ЮЗ) 10 км  снежные кристаллы  10/0 верхняя 
[Cs]
-17 -19.8 79 -19  1014.6  0.1  758  327           
15 19.02.18 290 (З) 4000 м  слаб. снег{ливн. осадки}  10/0 средняя 
[As op]
-18.9 -21.3 81 -22  1017.7  761  331    -17.1  0.5     
18 19.02.18 290 (З) 10 км  снежные кристаллы  10/0 средняя 
[Ac As]
-21.6 -24.3 79 -25  1018.5  0.8  761  335           
21 19.02.18 тихо ()   20000 м  {снег}  10/0 средняя 
[Ac As]
-23.2 -26.1 77 -23               
00 20.02.18 320 (СЗ) 20000 м  {снег}  9/0 средняя, верхняя 
[Ac trans|Ci fib]
-26.9 -30.2 73 -30  1021.4  763  343           
03 20.02.18 320 (СЗ) 20000 м    10/8 270 м средняя 
[St|Ac As]
-29.1 -32.7 71 -33  1023.3  1.8  765  347  -29.1    0.0  88  неравномерный
сухой снег
100% 
06 20.02.18 330 (СЗ) 10 км  слаб. снег  10/4 200 м средняя 
[St|As trans]
-27.3 -30.8 72 -28  1024.3  766  345           
09 20.02.18 280 (З) 20000 м  в посл. час снег  6/4 200 м верхняя 
[St|Ci fib]
-25.9 -29.4 72 -26  1026.4  2.2  767  343           
12 20.02.18 310 (СЗ) 20000 м    ясно 
-29 -32.4 72 -33  1027.6  1.1  768  348           
15 20.02.18 310 (СЗ) 20000 м    ясно 
-31.1 -34.9 69 -32  1027.8  0.2  768  351    -25.4  0.0     
18 20.02.18 310 (СЗ) 20000 м    ясно 
-33.1 -37.1 67 -34               
21 20.02.18 310 (СЗ) 20000 м    ясно 
-33.9 -38.1 66 -35  1029.2  769  356           
00 21.02.18 310 (СЗ) 20000 м    ясно 
-35 -39.3 65 -36  1029.6  0.4  770  358           
09 21.02.18 тихо ()   20000 м    ясно 
-28.4 -32.6 67 -28  1031.4  0.5  771  349           
12 21.02.18 250 (З) 20000 м    ясно 
-33.9 -38.1 66 -35  1031.8  0.3  771  357           
15 21.02.18 тихо ()   20000 м    ясно 
-33.7 -37.8 66 -34  1031.4  -0.3  771  356    -27.3       
18 21.02.18 350 (С) 20000 м    ясно 
-35.3 -39.6 65 -36  1031.2  -0.3  771  359           
21 21.02.18 350 (С) 20000 м    ясно 
-35.1 -39.4 65 -36  1031.2  771  358           
Время (UTC), дата Ветер
(°,м/с) 
Видим.   Явления Облачность Т
(°С)
Тd
(°С)
f(%) Тe
(°С)
Pmin
(гПа)
dP
(гПа)
Po
(мм)
O2
(г/м3)
Тmin Tmax R s Состояние
почвы

Для получения пояснительной информации подведите курсор к названию столбца.

ПОГОДА в Красноселькупе - архив

Всё, что Вы хотите узнать о погоде в Красноселькупе - удобно и подробно!

Выберите нужную дату (начиная с 1 января 2015* года) и нажмите кнопку "Найти".
Будут отображены архивные сводки погоды по пункту Красноселькуп, начиная с указанной даты.


Отображать данные в формате CSV (для использования в таблицах Excel)


Внимание! Наш архив погоды предназначен исключительно для личного некоммерческого использования в познавательных целях. Если Вам необходимы официальные справки о состоянии погоды (для производственных, юридических, коммерческих и т.п. целей), обращайтесь в органы Росгидромета.

*Примечание: данная дата относится к архиву по метеостанциям СССР (Россия, СНГ, Балтия).
Архив по метеостанциям Зарубежной Европы и Азии (кроме Китая) хранится 10 дней, по другим регионам земного шара (Китай, Африка, Америка, Австралия, Океания) - 1 день.

Красноселькуп - район местоположения метеостанции


Название, широта, долгота, высота метеостанции:
Красноселькуп 65.7°ш. 82.5°д. 60 м над ур. моря [Российская Федерация]

Дополнительная информация

В oтличие oт бoльшинства пoгoдных сайтoв мы публикуем пoдрoбную метеoинфoрмацию в детальнoм прoфессиoнальнoм фoрмате.

Характеристики температуры и влажнoсти вoздуха измеряются на высoте 2 м в тени вдали oт зданий и деревьев.
Скoрoсть ветра измеряется на высoте 10 м (на урoвне рoста челoвека скoрoсть ветра ниже в 1.5-2 раза). Если метеoстанция нахoдится в гoрoде или в лесу, тo скoрoсть ветра занижена на 2-4 м/с пo сравнению с oткрытым местoм. Скoрoсть ветра над акватoриями крупных рек и oзёр, а также на вершинах хoлмoв на 2-5 м/с выше, чем в oбычных услoвиях.
Атмoсфернoе давление в разных тoчках местнoсти мoжет значительнo oтличаться oт давления на метеoстанции, в зависимoсти oт услoвий рельефа (при пoдъёме на 10 м давление пoнижается примернo на 1 мм рт.ст.).